NOAA NWS Hourly Roundups by Site

Regional Weather Roundup for Bismarck, ND

To Select Another Site Choose from List

Select Site:  

000
ASUS43 KBIS 012010
RWRBIS

NWR BROADCAST TEXT
NATIONAL WEATHER SERVICE BISMARCK ND
200 PM CST FRI MAR 01 2024

NOTE: "FAIR" INDICATES FEW OR NO CLOUDS BELOW 12,000 FEET WITH NO
SIGNIFICANT WEATHER AND/OR OBSTRUCTIONS TO VISIBILITY.


CITY           SKY/WX    TMP DP  RH WIND       PRES   REMARKS
WILLISTON      MOSUNNY   40  23  50 NW15      29.73R
MINOT          PTSUNNY   41  29  62 NW15G24   29.70R
MINOT AFB      PTSUNNY   36  27  69 N20       29.68R
BISMARCK       MOSUNNY   54  33  45 NW12G21   29.67R
DICKINSON      MOSUNNY   51  27  39 NW17G24   29.68R
GARRISON         N/A     51  32  48 NW18      29.67R
HETTINGER ARPT PTSUNNY   52  28  39 N15G22    29.69S
JAMESTOWN      MOSUNNY   50  33  52 NW21G29   29.63R
CARRINGTON     SUNNY     50  36  57 NW14G20   29.64R
HAZEN          MOSUNNY   52  32  46 NW10G22   29.69S
MANDAN         MOSUNNY   52  37  58 N13       29.68R
OAKES          MOSUNNY   54  37  54 SW8       29.61S
RUGBY          MOSUNNY   39  28  65 NW24      29.66R
STANLEY        PTSUNNY   39  30  70 NW18      29.69R
TIOGA          MOSUNNY   36  28  75 N14       29.73R
WATFORD CITY   PTSUNNY   46  28  49 NW10G17   29.72R
$$

CITY           SKY/WX    TMP DP  RH WIND       PRES   REMARKS
GRAND FORKS    PTSUNNY   40  32  73 SW8       29.61R
GRAND FORKS AF SUNNY     44  33  67 CALM      29.59R
DEVILS LAKE    MOSUNNY   48  33  56 NW20      29.62R
FARGO          MOSUNNY   52  37  56 S15       29.60F
CANDO          MOSUNNY   48  36  61 NW21      29.63S
CAVALIER       PTSUNNY   48  34  57 MISG      29.60R
GRAFTON        MOSUNNY   45  36  70 W8        29.62R
GWINNER        SUNNY     55  39  54 SW12      29.61S
LANGDON          N/A     45  39  81 NW18G24   29.60R
ROLLA          PTSUNNY   41  30  65 NW16G23   29.62R
WALHALLA       PTSUNNY   46  30  53 NW20      29.60R
$$

CITY           SKY/WX    TMP DP  RH WIND       PRES   REMARKS
ABERDEEN       SUNNY     62  35  36 S8        29.61S
MOBRIDGE       MOSUNNY   62  32  32 N18       29.62R
BUFFALO          N/A     53  27  36 NW9       29.67S
RAPID CITY     PTSUNNY   61  26  26 N9        29.67S
GLASGOW        CLOUDY    34  22  61 CALM      29.73S
SIDNEY         CLOUDY    48  22  35 NW9       29.73S
WOLF POINT     CLOUDY    43  23  45 NE7       29.73S
GLENDIVE       CLOUDY    46  26  45 N3        29.73F
MILES CITY     CLOUDY    46  28  49 CALM      29.72F
BAKER          MOSUNNY   50  29  44 NW10      29.71F
$$

CITY           SKY/WX    TMP DP  RH WIND       PRES   REMARKS
BILLINGS       CLOUDY    37  33  85 SW7       29.74S
GREAT FALLS    MOSUNNY   46  15  28 SW18G28   29.60F
REGINA         MOSUNNY   19  10  68 W18       29.77R WCI   4
ESTEVAN        PTSUNNY   25  16  68 NW17G25   29.76R WCI  11
$$



 

View Past Reports for Bismarck, ND.

Products Courtesy of NOAA-NWS
NWS Information Parsing Script by Ken True at Saratoga Weather - Script by SE Lincoln Weather.